Waarnemingen

Advertentie
Mijn weer
Zwiesel, Duitsland (10796): temperatuur & dauwpunt: 23.03.2017 01:00:00 - 29.03.2017 01:00:00 (CEST)Zwiesel, Duitsland (10796): temperatuur 5cm & temperatuur -5cm: 23.03.2017 01:00:00 - 29.03.2017 01:00:00 (CEST)Zwiesel, Duitsland (10796): temperatuur -20cm & temperatuur -100cm: 23.03.2017 01:00:00 - 29.03.2017 01:00:00 (CEST)Zwiesel, Duitsland (10796): windsnelheid & windstoten: 23.03.2017 01:00:00 - 29.03.2017 01:00:00 (CEST)Zwiesel, Duitsland (10796): windrichting: 23.03.2017 01:00:00 - 29.03.2017 01:00:00 (CEST)Zwiesel, Duitsland (10796): luchtdruk: 23.03.2017 01:00:00 - 29.03.2017 01:00:00 (CEST)Zwiesel, Duitsland (10796): zicht: 23.03.2017 01:00:00 - 29.03.2017 01:00:00 (CEST)Zwiesel, Duitsland (10796): Zonneschijnduur: 23.03.2017 01:00:00 - 29.03.2017 01:00:00 (CEST)Zwiesel, Duitsland (10796): neerslag: 23.03.2017 01:00:00 - 29.03.2017 01:00:00 (CEST)
Datum & Tijd tt [°C] td [°C] tt 5cm [°C] tt -5cm [°C] tt -20cm [°C] tt -100cm [°C] ff [km/u] ff [kn] fx [km/u] fx [kn] dd ppp [hPa] vv [km] sd [min] rr [mm]
29.03.2017 01:00:00 2,6 -0,3 -1,4 5,8 7,4 4,6 0 0 6 3 N 1027,5 35 0 0,0
29.03.2017 00:00:00 3,7 0,1 -0,2 6,6 7,6 4,6 4 2 7 4 O 1026,9 50 0 0,0
28.03.2017 23:00:00 4,2 0,1 -0,4 7,5 7,8 4,6 2 1 6 3 O 1026,5 34 0 0,0
28.03.2017 22:00:00 5,9 0,5 1,0 8,5 7,9 4,6 3 2 8 4 ZZO 1025,8 40 0 0,0
28.03.2017 21:00:00 9,2 0,8 2,2 9,6 7,9 4,6 3 2 8 4 ONO 1024,4 39 0 0,0
28.03.2017 20:00:00 11,5 -0,9 5,4 10,9 7,7 4,6 2 1 13 7 ZZO 1023,2 35 18 0,0
28.03.2017 19:00:00 15,3 -1,3 13,8 11,9 7,5 4,6 9 5 19 11 ZW 1021,5 52 60 0,0
28.03.2017 18:00:00 16,4 -0,7 17,3 12,6 7,1 4,6 12 6 18 10 ZZW 1020,9 27 60 0,0
28.03.2017 17:00:00 16,7 -2,0 19,2 13,0 6,6 4,6 12 7 22 12 Z 1020,9 37 60 0,0
28.03.2017 16:00:00 17,0 -1,3 20,0 13,0 6,1 4,6 12 6 22 12 ZZW 1021,0 32 60 0,0
28.03.2017 15:00:00 17,0 0,2 20,1 12,5 5,5 4,6 13 7 26 14 ZZW 1021,2 38 60 0,0
28.03.2017 14:00:00 16,7 -1,1 19,9 11,5 5,0 4,6 14 8 24 13 ZW 1021,6 35 60 0,0
28.03.2017 13:00:00 16,0 -1,8 18,2 9,9 4,7 4,6 13 7 20 11 WZW 1022,2 25 60 0,0
28.03.2017 12:00:00 14,2 -3,4 16,4 7,6 4,5 4,6 7 4 13 7 ZW 1023,0 43 60 0,0
28.03.2017 11:00:00 12,6 -0,3 14,0 5,0 4,5 4,6 4 2 8 4 ZZW 1023,5 55 60 0,0
28.03.2017 10:00:00 7,0 0,1 8,2 2,8 4,6 4,6 3 2 5 3 WZW 1025,0 36 60 0,0
28.03.2017 09:00:00 2,0 -2,0 3,2 2,3 4,8 4,6 3 2 5 3 N 1026,3 46 60 0,0
28.03.2017 08:00:00 -1,0 -2,8 -1,8 2,4 5,0 4,6 3 2 6 4 O 1027,0 44 31 0,0
28.03.2017 07:00:00 -2,0 -2,9 -4,9 2,6 5,2 4,6 2 1 5 3 O 1027,0 48 0 0,0
28.03.2017 06:00:00 -1,7 -2,6 -4,5 2,8 5,5 4,6 3 2 4 2 OZO 1026,9 66 0 0,0
28.03.2017 05:00:00 -1,1 -2,5 -4,3 3,0 5,7 4,6 4 2 5 3 ZO 1026,7 66 0 0,0
28.03.2017 04:00:00 -1,0 -2,3 -4,4 3,4 6,0 4,6 2 1 5 3 NNO 1026,6 66 0 0,0
28.03.2017 03:00:00 -0,5 -2,1 -3,5 3,8 6,3 4,6 0 0 8 5 N 1027,1 64 0 0,0
28.03.2017 02:00:00 0,2 -2,2 -3,2 4,4 6,5 4,6 3 2 5 3 O 1026,9 57 0 0,0
28.03.2017 01:00:00 1,4 -1,5 -2,7 5,2 6,8 4,6 2 1 8 5 N 1026,7 62 0 0,0
28.03.2017 00:00:00 2,9 -1,3 -1,5 6,0 7,0 4,6 3 2 9 5 ZO 1026,2 59 0 0,0
27.03.2017 23:00:00 5,3 -2,1 1,7 6,8 7,1 4,6 5 3 18 10 NO 1025,4 70 0 0,0
27.03.2017 22:00:00 6,3 -2,1 2,0 7,7 7,2 4,6 5 3 15 8 NNO 1025,1 70 0 0,0
27.03.2017 21:00:00 8,7 -2,8 3,6 8,8 7,2 4,5 5 3 16 8 NNO 1024,2 70 0 0,0
27.03.2017 20:00:00 11,9 -4,1 8,5 10,0 7,0 4,5 10 6 19 11 NO 1023,0 70 22 0,0
27.03.2017 19:00:00 14,6 -3,1 13,5 11,1 6,6 4,5 6 3 16 9 ONO 1022,0 70 60 0,0
27.03.2017 18:00:00 15,7 -2,4 16,2 11,9 6,2 4,5 11 6 23 12 NNO 1021,6 44 60 0,0
27.03.2017 17:00:00 16,8 -3,3 18,9 12,2 5,7 4,5 7 4 15 8 ZW 1021,4 41 60 0,0
27.03.2017 16:00:00 16,3 -2,4 19,3 12,0 5,1 4,5 9 5 24 13 WZW 1021,9 62 60 0,0
27.03.2017 15:00:00 15,4 -3,7 18,7 11,2 4,5 4,5 11 6 20 11 ZZW 1022,7 35 60 0,0
27.03.2017 14:00:00 15,5 -4,5 18,4 9,7 4,1 4,5 7 4 14 8 Z 1023,4 38 60 0,0
27.03.2017 13:00:00 13,8 -6,0 15,5 7,5 3,8 4,5 7 4 14 8 ZW 1024,2 34 60 0,0
27.03.2017 12:00:00 12,3 -6,5 13,8 4,8 3,8 4,5 5 3 11 6 ZW 1024,9 36 60 0,0
27.03.2017 11:00:00 8,9 -3,7 10,6 2,1 3,9 4,5 3 2 6 4 WZW 1026,1 46 60 0,0
27.03.2017 10:00:00 3,9 -3,2 4,8 1,6 4,0 4,5 3 2 5 3 W 1027,7 37 60 0,0
27.03.2017 09:00:00 1,5 -4,7 1,8 1,7 4,2 4,5 2 1 5 3 ZZW 1028,4 53 60 0,0
27.03.2017 08:00:00 -2,8 -5,3 -3,0 1,8 4,4 4,5 2 1 10 6 N 1029,7 35 29 0,0
27.03.2017 07:00:00 -3,6 -5,1 -6,6 1,9 4,5 4,5 2 1 9 5 NO 1029,8 47 0 0,0
27.03.2017 06:00:00 -3,4 -5,1 -6,1 2,1 4,7 4,5 4 2 6 4 OZO 1029,7 57 0 0,0
27.03.2017 05:00:00 -3,2 -5,2 -6,2 2,3 4,9 4,5 3 1 10 5 NNO 1030,0 58 0 0,0
27.03.2017 04:00:00 -3,0 -5,1 -5,6 2,5 5,2 4,5 4 2 8 4 OZO 1029,8 58 0 0,0
27.03.2017 03:00:00 -2,5 -5,1 -5,4 2,7 5,4 4,5 5 3 7 4 ZO 1029,9 41 0 0,0
27.03.2017 02:00:00 -1,5 -4,6 -4,7 3,0 5,6 4,5 5 3 9 5 O 1029,7 66 0 0,0
27.03.2017 01:00:00 0,0 -4,4 -3,0 3,3 5,9 4,5 6 3 16 8 NNO 1029,2 65 0 0,0
27.03.2017 00:00:00 -0,3 -4,3 -4,1 3,8 6,2 4,5 6 3 12 6 N 1028,9 66 0 0,0
26.03.2017 23:00:00 0,0 -4,0 -4,3 4,4 6,4 4,5 4 2 8 4 N 1028,7 70 0 0,0
26.03.2017 22:00:00 1,9 -3,8 -1,9 5,4 6,6 4,5 4 2 12 6 NW 1027,8 70 0 0,0
26.03.2017 21:00:00 3,1 -4,5 -1,5 6,5 6,6 4,5 4 2 13 7 NNO 1026,9 70 0 0,0
26.03.2017 20:00:00 6,4 -5,6 2,0 7,6 6,6 4,5 8 5 22 12 NO 1025,1 70 19 0,0
26.03.2017 19:00:00 8,1 -6,3 7,0 8,7 6,4 4,4 10 5 25 14 ONO 1024,2 70 60 0,0
26.03.2017 18:00:00 9,0 -5,8 10,1 9,5 6,2 4,4 14 8 27 15 ONO 1023,9 44 60 0,0
26.03.2017 17:00:00 9,7 -7,1 12,0 10,0 5,8 4,4 16 8 34 19 ONO 1023,4 40 60 0,0
26.03.2017 16:00:00 10,1 -5,3 13,3 10,2 5,4 4,4 16 9 37 20 NNO 1023,4 38 60 0,0
26.03.2017 15:00:00 9,2 -6,2 12,3 9,8 5,1 4,4 19 10 38 21 NNO 1023,5 35 60 0,0
26.03.2017 14:00:00 9,0 -4,2 12,6 9,1 4,7 4,4 21 12 33 18 NNO 1023,6 25 60 0,0
26.03.2017 13:00:00 9,0 -5,0 11,3 7,8 4,5 4,4 22 12 40 21 NNO 1023,5 28 60 0,0
26.03.2017 12:00:00 8,5 -7,3 11,2 6,1 4,4 4,4 16 8 42 23 O 1023,5 24 60 0,0
26.03.2017 11:00:00 7,0 -6,7 8,7 4,7 4,3 4,4 23 12 44 24 O 1023,4 23 60 0,0
26.03.2017 10:00:00 6,9 -3,9 8,0 3,4 4,4 4,4 9 5 22 12 NO 1022,7 37 29 0,0
26.03.2017 09:00:00 4,3 -1,5 4,2 2,6 4,6 4,4 5 3 19 10 NNO 1023,0 29 41 0,0
26.03.2017 08:00:00 3,3 -1,9 2,2 2,2 4,8 4,4 8 4 23 12 NO 1022,9 30 23 0,0
26.03.2017 07:00:00 2,8 -2,0 0,9 2,5 5,0 4,4 15 8 31 17 NNO 1022,9 34 0 0,0
26.03.2017 06:00:00 3,7 -1,9 1,8 2,8 5,1 4,4 16 9 30 16 N 1022,2 33 0 0,0
26.03.2017 05:00:00 4,0 -2,1 2,3 3,2 5,3 4,4 16 8 40 22 NNO 1022,6 31 0 0,0
26.03.2017 04:00:00 4,5 -2,0 2,7 3,4 5,5 4,4 17 9 38 20 NNO 1022,4 31 0 0,0
26.03.2017 03:00:00 5,1 -1,6 3,0 3,7 5,8 4,4 14 8 35 19 NNO 1022,5 26 0 0,0
26.03.2017 02:00:00 5,8 -2,1 3,2 4,0 6,0 4,4 13 7 28 15 NO 1022,6 31 0 0,0
26.03.2017 01:00:00 5,7 -1,3 1,8 4,5 6,2 4,4 9 5 26 14 NO 1022,9 29 0 0,0
26.03.2017 00:00:00 6,4 -1,2 4,1 5,0 6,4 4,4 14 8 28 15 NNO 1022,7 30 0 0,0
25.03.2017 23:00:00 5,4 -0,8 2,5 5,6 6,6 4,4 12 7 29 16 N 1023,1 37 0 0,0
25.03.2017 22:00:00 5,7 0,6 3,4 6,3 6,7 4,4 13 7 24 13 NO 1023,3 29 0 0,0
25.03.2017 21:00:00 5,7 0,9 1,9 7,3 6,7 4,4 8 5 21 11 NO 1023,3 34 0 0,0
25.03.2017 20:00:00 7,2 0,5 4,8 8,3 6,7 4,4 12 7 17 9 NNO 1023,0 30 0 0,0
25.03.2017 19:00:00 8,6 0,3 7,1 9,4 6,5 4,3 10 6 24 13 NNO 1023,2 37 10 0,0
25.03.2017 18:00:00 10,0 -0,4 9,7 10,3 6,2 4,3 15 8 29 16 NNO 1023,0 54 37 0,0
25.03.2017 17:00:00 11,8 -0,4 13,7 10,7 5,8 4,3 13 7 33 18 NNO 1022,9 59 57 0,0
25.03.2017 16:00:00 12,0 -3,5 15,2 10,7 5,4 4,3 17 9 29 16 NNO 1023,5 40 60 0,0
25.03.2017 15:00:00 11,8 -0,9 15,2 10,4 4,9 4,3 20 11 30 16 NNO 1024,2 35 60 0,0
25.03.2017 14:00:00 11,3 -0,5 14,9 9,5 4,5 4,3 16 9 31 17 NO 1025,1 27 60 0,0
25.03.2017 13:00:00 11,1 0,9 13,8 8,2 4,2 4,3 16 9 29 15 NNO 1025,7 30 60 0,0
25.03.2017 12:00:00 10,4 1,2 13,0 6,3 4,0 4,3 14 8 24 13 NNO 1026,5 33 60 0,0
25.03.2017 11:00:00 8,5 -1,0 10,4 3,9 4,1 4,3 11 6 18 10 NNO 1027,6 40 60 0,0
25.03.2017 10:00:00 6,6 -1,0 7,4 2,0 4,2 4,3 6 3 14 8 NO 1028,2 34 60 0,0
25.03.2017 09:00:00 4,0 -0,4 3,3 1,9 4,4 4,3 7 4 15 8 NNO 1028,8 21 60 0,0
25.03.2017 08:00:00 1,7 -0,9 -0,3 2,0 4,5 4,3 10 5 16 8 NNO 1030,0 16 11 0,0
25.03.2017 07:00:00 0,1 -1,1 -3,3 2,2 4,7 4,3 4 2 14 7 NNO 1030,1 11 0 0,0
25.03.2017 06:00:00 0,9 -1,0 -1,8 2,3 4,9 4,3 8 4 12 7 NO 1030,1 12 0 0,0
25.03.2017 05:00:00 1,6 -0,2 -0,8 2,5 5,1 4,3 9 5 15 8 NO 1030,4 11 0 0,0
25.03.2017 04:00:00 2,1 0,0 -3,0 2,7 5,4 4,3 4 2 11 6 NO 1030,6 12 0 0,0
25.03.2017 03:00:00 2,0 0,3 -0,7 2,9 5,6 4,3 8 4 14 8 NNO 1031,2 10 0 0,0
25.03.2017 02:00:00 2,3 0,3 -0,3 3,3 5,9 4,3 10 6 13 7 NO 1031,2 11 0 0,0
25.03.2017 01:00:00 2,1 0,5 -2,6 3,8 6,1 4,3 6 4 11 6 NNO 1031,4 10 0 0,0
25.03.2017 00:00:00 2,7 0,4 -1,7 4,5 6,3 4,3 6 4 15 8 NNO 1031,3 12 0 0,0
24.03.2017 23:00:00 3,1 0,4 0,2 5,2 6,5 4,3 6 3 20 11 NNO 1031,3 12 0 0,0
24.03.2017 22:00:00 4,3 1,4 2,0 5,9 6,7 4,2 14 8 27 14 NNO 1030,5 14 0 0,0
24.03.2017 21:00:00 4,8 1,8 3,5 6,7 6,8 4,2 17 9 34 18 NNO 1029,9 13 0 0,0
24.03.2017 20:00:00 4,7 2,5 3,3 7,7 6,8 4,2 16 9 34 18 NNO 1029,3 11 0 0,0
24.03.2017 19:00:00 5,2 2,7 4,4 8,8 6,7 4,2 19 10 37 20 NNO 1028,7 15 0 0,0
24.03.2017 18:00:00 5,8 2,9 5,9 9,8 6,5 4,2 26 14 38 20 NO 1028,2 13 26 0,0
24.03.2017 17:00:00 7,1 3,2 9,4 10,4 6,2 4,2 26 14 35 19 NO 1027,6 15 60 0,0
24.03.2017 16:00:00 7,3 3,3 9,4 10,7 5,9 4,2 27 14 38 21 NO 1027,1 15 57 0,0
24.03.2017 15:00:00 8,4 3,4 12,0 10,2 5,5 4,2 21 11 36 19 NO 1026,9 20 60 0,0
24.03.2017 14:00:00 7,9 3,5 12,2 9,6 5,2 4,2 23 12 31 17 NNO 1026,9 17 54 0,0
24.03.2017 13:00:00 7,8 3,8 11,1 8,6 5,0 4,2 22 12 31 17 NO 1026,8 23 60 0,0
24.03.2017 12:00:00 7,3 3,7 9,2 7,3 4,8 4,2 19 10 32 17 NNO 1026,7 23 52 0,0
24.03.2017 11:00:00 6,8 3,3 8,3 6,3 4,7 4,2 20 11 34 19 NNO 1026,5 36 50 0,0
24.03.2017 10:00:00 6,1 3,2 7,0 5,2 4,7 4,2 20 11 35 19 NNO 1025,5 35 60 0,0
24.03.2017 09:00:00 5,8 3,7 7,4 3,8 4,8 4,2 14 8 29 16 NNO 1025,5 28 55 0,0
24.03.2017 08:00:00 4,6 3,4 4,4 3,1 5,0 4,2 15 8 26 14 NNO 1025,0 17 11 0,0
24.03.2017 07:00:00 3,9 3,0 2,1 3,2 5,1 4,2 13 7 23 12 NO 1024,8 15 0 0,0
24.03.2017 06:00:00 3,7 2,8 1,9 3,4 5,3 4,2 13 7 25 13 NO 1023,9 13 0 0,0
24.03.2017 05:00:00 3,8 2,8 1,8 3,7 5,5 4,2 11 6 22 12 NNO 1023,4 16 0 0,0
24.03.2017 04:00:00 4,2 3,1 2,4 3,9 5,7 4,2 13 7 22 12 NNO 1022,4 19 0 0,0
24.03.2017 03:00:00 4,0 3,0 1,5 4,3 5,9 4,1 9 5 23 12 NNO 1022,1 18 0 0,0
24.03.2017 02:00:00 4,3 3,2 2,6 4,6 6,1 4,1 14 7 22 12 NNO 1021,2 24 0 0,0
24.03.2017 01:00:00 4,5 3,4 2,5 5,1 6,3 4,1 10 6 18 10 NO 1021,1 22 0 0,0
24.03.2017 00:00:00 4,7 3,5 2,6 5,6 6,4 4,1 9 5 18 10 NO 1021,0 20 0 0,0
23.03.2017 23:00:00 5,4 4,0 3,4 6,2 6,5 4,1 9 5 19 10 NO 1020,1 21 0 0,0
23.03.2017 22:00:00 5,7 4,3 4,0 7,0 6,6 4,1 13 7 22 12 NNO 1019,6 21 0 0,0
23.03.2017 21:00:00 5,9 4,6 4,2 7,9 6,6 4,1 12 6 27 15 NNO 1019,3 20 0 0,0
23.03.2017 20:00:00 6,7 5,3 5,7 8,9 6,4 4,1 14 8 26 14 N 1018,1 20 0 0,0
23.03.2017 19:00:00 8,4 5,7 7,8 9,8 6,2 4,1 10 6 18 10 NNW 1016,9 33 9 0,0
23.03.2017 18:00:00 9,5 6,2 11,0 10,2 5,9 4,1 6 4 16 9 WZW 1016,1 24 25 0,0
23.03.2017 17:00:00 9,8 6,3 12,2 10,1 5,6 4,1 8 4 16 9 WZW 1015,9 25 18 0,0
23.03.2017 16:00:00 9,2 5,7 12,7 9,5 5,3 4,1 8 4 14 8 ZW 1016,2 22 5 0,0
23.03.2017 15:00:00 8,5 5,1 11,5 8,2 5,1 4,1 7 4 11 6 W 1016,5 22 2 0,0
23.03.2017 14:00:00 7,5 4,5 9,0 7,3 4,9 4,1 4 2 8 5 NW 1016,8 21 0 0,0
23.03.2017 13:00:00 6,8 4,5 8,1 6,7 4,8 4,1 4 2 12 7 W 1017,2 21 0 0,0
23.03.2017 12:00:00 6,3 4,8 8,0 6,0 4,7 4,1 5 3 8 5 WZW 1017,1 16 0 0,0
23.03.2017 11:00:00 5,6 4,5 7,1 5,1 4,7 4,0 4 2 6 4 Z 1017,0 7 0 0,0
23.03.2017 10:00:00 4,7 3,6 6,0 4,4 4,8 4,0 2 1 5 3 Z 1016,8 24 0 0,0
23.03.2017 09:00:00 3,6 3,2 3,9 4,0 4,9 4,0 0 0 4 2 N 1016,7 22 0 0,0
23.03.2017 08:00:00 3,1 3,1 3,2 3,8 5,0 4,0 4 2 6 4 O 1016,4 19 0 0,0
23.03.2017 07:00:00 2,1 2,1 2,0 3,8 5,1 4,0 4 2 11 6 N 1016,2 14 0 0,0
23.03.2017 06:00:00 2,7 2,7 0,6 4,2 5,2 4,0 5 3 9 5 OZO 1015,6 17 0 0,0
23.03.2017 05:00:00 3,8 3,0 2,6 4,5 5,2 4,0 5 3 14 7 W 1014,6 24 0 0,0
23.03.2017 04:00:00 4,9 3,5 4,0 4,7 5,3 4,0 4 2 10 5 NO 1014,5 44 0 0,0
23.03.2017 03:00:00 4,8 3,5 4,4 4,7 5,4 4,0 6 3 11 6 NO 1015,0 40 0 0,0
23.03.2017 02:00:00 4,7 3,5 4,4 4,7 5,5 4,0 6 3 13 7 NO 1015,1 46 0 0,0
23.03.2017 01:00:00 - - - - - - - - - - - - - - -

tt = temperatuur
td = dauwpunt
tt 5cm = temperatuur 5cm
tt -5cm = temperatuur -5cm
tt -20cm = temperatuur -20cm
tt -100cm = temperatuur -100cm
ff = windsnelheid
fx = windstoten
dd = windrichting
ppp = luchtdruk
vv = zicht
sd = Zonneschijnduur
rr = neerslag

Weerstations in de omgeving